Location: Beneden-Haastrecht
(52.0012°N, 4.7557°E)
Time: 15:57:43
(UTC+00:00)

ISS - Visible Passes

Search period start: 22 January 2021 00:00
Search period end: 01 February 2021 00:00
Orbit: 418 x 421 km, 51.6° (Epoch: 22 January)

Date Brightness Start Highest point End Pass type
(mag) Time Alt. Az. Time Alt. Az. Time Alt. Az.
22 Jan -2.4 17:43:05 10° SSW 17:46:01 27° SSE 17:47:08 23° ESE visible
22 Jan -0.9 19:19:10 10° WSW 19:20:06 17° WSW 19:20:06 17° WSW visible
23 Jan -1.9 16:56:15 10° SSW 16:58:48 20° SE 17:01:22 10° E visible
23 Jan -3.2 18:31:51 10° WSW 18:34:44 54° SSW 18:34:44 54° SSW visible
24 Jan -3.3 17:44:35 10° SW 17:47:52 49° SSE 17:49:20 27° E visible
24 Jan -1.0 19:21:11 10° W 19:22:18 19° W 19:22:18 19° W visible
25 Jan -2.8 16:57:23 10° SW 17:00:33 37° SSE 17:03:43 10° E visible
25 Jan -3.6 18:33:47 10° W 18:36:51 70° WSW 18:36:51 70° WSW visible
26 Jan -3.7 17:46:25 10° WSW 17:49:47 74° SSE 17:51:24 28° E visible
26 Jan -1.0 19:23:11 10° W 19:24:22 20° W 19:24:22 20° W visible
27 Jan -3.4 16:59:02 10° WSW 17:02:23 62° SSE 17:05:45 10° E visible
27 Jan -3.6 18:35:46 10° W 18:38:53 73° WSW 18:38:53 73° WSW visible
28 Jan -3.8 17:48:20 10° W 17:51:44 87° S 17:53:25 27° E visible
28 Jan -1.1 19:25:09 10° W 19:26:23 20° W 19:26:23 20° W visible
29 Jan -3.7 17:00:54 10° W 17:04:17 83° S 17:07:41 10° E visible
29 Jan -3.6 18:37:42 10° W 18:40:56 67° SW 18:40:56 67° SW visible
30 Jan -3.7 17:50:15 10° W 17:53:38 79° S 17:55:31 24° ESE visible
30 Jan -1.1 19:27:09 10° W 19:28:29 20° WSW 19:28:29 20° WSW visible
31 Jan -3.7 17:02:47 10° W 17:06:11 85° S 17:09:34 10° E visible
31 Jan -2.9 18:39:37 10° W 18:42:52 43° SSW 18:43:07 42° S visible
